STARLINK-1211 (45208 NORAD) Tracking and Keplerian Element Data

This shows tracking and keplerian element data for the satellite.

Feedback or suggestion? Click here.




ElementValue
Catalog45208
NameSTARLINK-1211
Epoch Orbit2267
Epoch Day193.91667824
Epoch Year2020
RAAN304.7246
Inclination52.9998
Eccentricity0.0001219
Argument of Perigee96.9351
Mean Anonmoly114.0861
Mean Motion15.05585575
Decay Rate-0.00033618
L11 45208U 20012AG 20193.91667824 -.00033618 00000-0 -22987-2 0 9995
L22 45208 52.9998 304.7246 0001219 96.9351 114.0861 15.05585575 22679

Live tracking and technical data element details for STARLINK-1211 (NORAD 45208). STARLINK-1211 can be tracked NOW for your location showing map with azimuth and elevation plus other details from your city location.

Track the satellite on the map from your city or location and see movement details for azimuth, elevation, latitude, longitude, range, height, and movement on the map or in text.







IsCatalogInMostPopularTable: catalog: 45208, numindb: 33
Update: records affected: 1



GetName: 45208 STARLINK-1211

Hit Count: updated at: Mon, 13 Jul 2020 03:40:09 GMT